Regional Weather Roundup
Issued by NWS Spokane, WA

Current Version | Previous Version | Text Only | Print | Product List | Glossary On
Versions: 1 2 3 4 5 6 7 8 9 10 11 12 13 14 15 16 17 18 19 20 21 22 23 24 25 26 27 28 29 30 31 32 33 34 35 36 37 38 39 40 41 42 43 44 45 46 47 48 49 50
456
NZUS01 KOTX 080305
RWROTX
EASTERN WASHINGTON/NORTHERN IDAHO ROUNDUP
NATIONAL WEATHER SERVICE, SPOKANE WA
700 PM PST SUN FEB 07 2016

Note: "fair" indicated few or no clouds below 12,000 feet with no
significant weather and/or obstructions to visibility.

...NORTHEAST WASHINGTON AND NORTHERN IDAHO PANHANDLE...

CITY           SKY/WX    TMP DP  RH WIND       PRES   REMARKS
SPOKANE INTL   MOCLDY    38  32  79 NE5       30.62R
SPOKANE DOWNTO CLOUDY    41  31  67 N3        30.64R
COEUR D ALENE  MOCLDY    37  28  70 NE9       30.60R
DEER PARK      CLOUDY    36  30  79 N3        30.64R
SANDPOINT      CLOUDY    36  32  87 NE3       30.65R
BONNERS FERRY  CLOUDY    34  25  69 CALM      30.65R

...SOUTHEAST WASHINGTON AND SOUTHERN IDAHO PANHANDLE...

CITY           SKY/WX    TMP DP  RH WIND       PRES   REMARKS
WALLA WALLA    PTCLDY    40  34  79 CALM      30.62R
PULLMAN/MOSCOW CLEAR     38  32  79 NE5       30.62S
LEWISTON       CLEAR     39  31  72 CALM      30.63R
LOWELL           N/A     36  34  92 CALM      30.69R

...COLUMBIA BASIN...

CITY           SKY/WX    TMP DP  RH WIND       PRES   REMARKS
EPHRATA        MOCLDY    37  30  75 NW12      30.64R
MOSES LAKE     MOCLDY    37  31  78 NW10      30.66R
TRI CITIES     PTCLDY    36  32  85 N3        30.66R
HERMISTON      PTCLDY    41  34  76 NE8       30.62R
PENDLETON      CLEAR     43  34  70 CALM      30.59S

...EAST SLOPES CASCADES...

CITY           SKY/WX    TMP DP  RH WIND       PRES   REMARKS
THE DALLES     CLEAR     47  35  63 E6        30.62R
YAKIMA         CLEAR     37  28  70 W7        30.64R
ELLENSBURG     PTCLDY    32  26  78 E3        30.63R
WENATCHEE      MOCLDY    37  28  70 N3        30.66R
OMAK           CLOUDY    30  26  85 CALM      30.67S

...SOUTHERN BRITISH COLUMBIA...

CITY           SKY/WX    TMP DP  RH WIND       PRES   REMARKS

...WESTERN MONTANA...

CITY           SKY/WX    TMP DP  RH WIND       PRES   REMARKS
MISSOULA       CLOUDY    34  27  75 W3        30.62R

...NEIGHBORING CITIES...

CITY           SKY/WX    TMP DP  RH WIND       PRES   REMARKS
SEATTLE        PTCLDY    45  37  73 N8        30.52S



USA.gov is the U.S. government's official web portal to all federal, state and local government web resources and services.